Regional Weather Roundup
Issued by NWS Tiyan, Guam

Current Version | Previous Version | Text Only | Print | Product List | Glossary On
Versions: 1 2 3 4 5 6 7 8 9 10 11 12 13 14 15 16 17 18 19 20 21 22 23 24 25 26 27 28 29 30 31 32 33 34 35 36 37 38 39 40 41 42 43
000
ASGM40 PGUM 021412
RWRGUM
WEATHER ROUNDUP FOR THE MARIANAS
NATIONAL WEATHER SERVICE TIYAN GU
1200 AM CHST FRI OCT 03 2014

GUZ001>004-021500-
MARIANA ISLANDS-

CITY           SKY/WX    TMP DP  RH WIND       PRES   REMARKS
GUAM AIRPORT   CLEAR     81  75  83 S6        29.72F
ANDERSEN AFB   CLEAR     72  68  88 SW13      29.71
ROTA AIRPORT   NOT AVBL
TINIAN AP      NOT AVBL
SAIPAN AP      PTCLDY    82  79  89 S13       29.73R HX  93

$$



USA.gov is the U.S. government's official web portal to all federal, state and local government web resources and services.